Weather History for Waskish, MN

Change the Weather History Date:

Tuesday, October 25, 2011

  Actual Average (KBDE) Record (KBDE)
Temperature  
Mean Temperature 38 °F -  
Max Temperature 50 °F 50 °F 76 °F (1989)
Min Temperature 26 °F 30 °F 13 °F (1981)
Degree Days  
Heating Degree Days 27    
Moisture  
Dew Point 30 °F    
Average Humidity 81    
Maximum Humidity 100    
Minimum Humidity 47    
Precipitation  
Precipitation 0.00 in - - ()
Sea Level Pressure  
Sea Level Pressure 30.04 in    
Wind  
Wind Speed 1 mph (ENE)    
Max Wind Speed 8 mph    
Max Gust Speed -    
Visibility 10 miles    
Events      
Averages and records for this station are not official NWS values.
T = Trace of Precipitation, MM = Missing Value Source: NWS Daily Summary

Daily Weather History Graph

Daily Weather History Graph

Search for Another Location

Airport:

Trip Planner

Search our weather history database for the weather conditions in past years. The results will help you decide how hot, cold, wet, or windy it might be!

Date:

Astronomy

Oct. 25, 2011 Rise Set
Actual Time 7:52 AM CDT 6:11 PM CDT
Civil Twilight 7:20 AM CDT 6:43 PM CDT
Nautical Twilight 6:43 AM CDT 7:19 PM CDT
Astronomical Twilight 6:07 AM CDT 7:55 PM CDT
Moon 6:23 AM CDT (10/25) 5:13 PM CDT (10/25)
Length of Visible Light 11h 23m
Length of Day
10h 19m
Waning Crescent, 2% of the Moon is Illuminated
Oct 25
Waning Crescent
Oct 26
New
Nov 2
First Quarter
Nov 10
Full
Nov 18
Last Quarter

Hourly Weather History & Observations

Time (CDT) Temp. Windchill Dew Point Humidity Pressure Visibility Wind Dir Wind Speed Gust Speed Precip Events Conditions
12:31 AM 30.2 °F - 28.4 °F 93% 30.06 in 10.0 mi Calm Calm - N/A   Clear
12:51 AM 30.2 °F - 28.4 °F 93% 30.06 in 10.0 mi Calm Calm - N/A   Clear
1:11 AM 30.2 °F - 30.2 °F 100% 30.06 in 10.0 mi Calm Calm - N/A   Clear
1:31 AM 30.2 °F - 30.2 °F 100% 30.06 in 10.0 mi Calm Calm - N/A   Clear
1:51 AM 32.0 °F - 30.2 °F 93% 30.06 in 10.0 mi Calm Calm - N/A   Clear
2:14 AM 30.2 °F - 28.4 °F 93% 30.05 in 10.0 mi Calm Calm - N/A   Clear
2:32 AM 28.4 °F - 26.6 °F 93% 30.05 in 10.0 mi Calm Calm - N/A   Clear
2:51 AM 28.4 °F - 26.6 °F 93% 30.05 in 10.0 mi Calm Calm - N/A   Clear
3:11 AM 28.4 °F - 26.6 °F 93% 30.05 in 10.0 mi Calm Calm - N/A   Clear
3:31 AM 26.6 °F - 26.6 °F 100% 30.04 in 10.0 mi Calm Calm - N/A   Clear
3:51 AM 26.6 °F - 26.6 °F 100% 30.04 in 10.0 mi Calm Calm - N/A   Clear
4:11 AM 28.4 °F - 26.6 °F 93% 30.03 in 10.0 mi Calm Calm - N/A   Clear
4:32 AM 28.4 °F - 26.6 °F 93% 30.03 in 10.0 mi Calm Calm - N/A   Clear
4:51 AM 26.6 °F - 26.6 °F 100% 30.03 in 10.0 mi Calm Calm - N/A   Clear
5:11 AM 28.4 °F - 26.6 °F 93% 30.04 in 10.0 mi Calm Calm - N/A   Clear
5:31 AM 28.4 °F - 26.6 °F 93% 30.03 in 10.0 mi Calm Calm - N/A   Clear
5:51 AM 28.4 °F - 28.4 °F 100% 30.03 in 10.0 mi Calm Calm - N/A   Clear
6:11 AM 28.4 °F - 26.6 °F 93% 30.03 in 10.0 mi Calm Calm - N/A   Clear
6:31 AM 26.6 °F - 26.6 °F 100% 30.03 in 10.0 mi Calm Calm - N/A   Clear
6:51 AM 26.6 °F - 26.6 °F 100% 30.03 in 10.0 mi Calm Calm - N/A   Clear
7:11 AM 26.6 °F - 26.6 °F 100% 30.02 in 10.0 mi Calm Calm - N/A   Clear
7:31 AM 26.6 °F 22.6 °F 26.6 °F 100% 30.03 in 10.0 mi East 3.5 mph - N/A   Clear
7:51 AM 26.6 °F - 26.6 °F 100% 30.04 in 10.0 mi Calm Calm - N/A   Clear
8:11 AM 28.4 °F - 28.4 °F 100% 30.05 in 10.0 mi Calm Calm - N/A   Clear
8:31 AM 28.4 °F - 28.4 °F 100% 30.05 in 10.0 mi Calm Calm - N/A   Clear
8:51 AM 28.4 °F - 28.4 °F 100% 30.05 in 10.0 mi Calm Calm - N/A   Clear
9:11 AM 30.2 °F - 30.2 °F 100% 30.05 in 10.0 mi Calm Calm - N/A   Clear
9:31 AM 32.0 °F 28.7 °F 32.0 °F 100% 30.05 in 10.0 mi East 3.5 mph - N/A   Clear
9:51 AM 33.8 °F 29.6 °F 33.8 °F 100% 30.05 in 10.0 mi ENE 4.6 mph - N/A   Clear
10:11 AM 35.6 °F 30.7 °F 33.8 °F 93% 30.04 in 10.0 mi East 5.8 mph - N/A   Clear
10:31 AM 37.4 °F 33.8 °F 33.8 °F 87% 30.05 in 10.0 mi East 4.6 mph - N/A   Clear
10:51 AM 39.2 °F 37.0 °F 33.8 °F 81% 30.05 in 10.0 mi ENE 3.5 mph - N/A   Clear
11:31 AM 42.8 °F 41.1 °F 33.8 °F 70% 30.06 in 10.0 mi NE 3.5 mph - N/A   Clear
11:51 AM 44.6 °F 41.4 °F 33.8 °F 66% 30.05 in 10.0 mi East 5.8 mph - N/A   Clear
12:11 PM 46.4 °F 44.3 °F 33.8 °F 62% 30.06 in 10.0 mi East 4.6 mph - N/A   Scattered Clouds
12:31 PM 46.4 °F 42.9 °F 33.8 °F 62% 30.05 in 10.0 mi East 6.9 mph - N/A   Scattered Clouds
12:51 PM 46.4 °F 42.9 °F 33.8 °F 62% 30.05 in 10.0 mi ESE 6.9 mph - N/A   Scattered Clouds
1:11 PM 48.2 °F - 35.6 °F 62% 30.04 in 10.0 mi East 5.8 mph - N/A   Scattered Clouds
1:31 PM 50.0 °F - 33.8 °F 54% 30.04 in 10.0 mi ENE 8.1 mph - N/A   Scattered Clouds
1:51 PM 50.0 °F - 33.8 °F 54% 30.03 in 10.0 mi East 4.6 mph - N/A   Mostly Cloudy
2:12 PM 48.2 °F - 32.0 °F 54% 30.02 in 10.0 mi ENE 4.6 mph - N/A   Scattered Clouds
2:31 PM 50.0 °F - 32.0 °F 50% 30.03 in 10.0 mi East 3.5 mph - N/A   Scattered Clouds
2:51 PM 48.2 °F - 32.0 °F 54% 30.02 in 10.0 mi East 3.5 mph - N/A   Mostly Cloudy
3:11 PM 50.0 °F - 32.0 °F 50% 30.02 in 10.0 mi Calm Calm - N/A   Mostly Cloudy
3:31 PM 50.0 °F - 32.0 °F 50% 30.02 in 10.0 mi Calm Calm - N/A   Overcast
3:51 PM 50.0 °F - 30.2 °F 47% 30.02 in 10.0 mi Calm Calm - N/A   Overcast
4:12 PM 48.2 °F - 30.2 °F 50% 30.03 in 10.0 mi Calm Calm - N/A   Overcast
4:32 PM 48.2 °F - 30.2 °F 50% 30.04 in 10.0 mi Calm Calm - N/A   Overcast
5:12 PM 46.4 °F - 30.2 °F 53% 30.04 in 10.0 mi Calm Calm - N/A   Mostly Cloudy
5:32 PM 46.4 °F - 30.2 °F 53% 30.04 in 10.0 mi Calm Calm - N/A   Overcast
5:52 PM 44.6 °F - 32.0 °F 61% 30.03 in 10.0 mi Calm Calm - N/A   Mostly Cloudy
6:31 PM 41.0 °F - 32.0 °F 70% 30.04 in 10.0 mi Calm Calm - N/A   Mostly Cloudy
6:51 PM 39.2 °F - 30.2 °F 70% 30.04 in 10.0 mi Calm Calm - N/A   Overcast
7:11 PM 37.4 °F - 30.2 °F 75% 30.04 in 10.0 mi Calm Calm - N/A   Overcast
7:31 PM 37.4 °F - 30.2 °F 75% 30.04 in 10.0 mi Calm Calm - N/A   Overcast
8:11 PM 35.6 °F - 30.2 °F 81% 30.04 in 10.0 mi Calm Calm - N/A   Overcast
8:31 PM 35.6 °F - 30.2 °F 81% 30.05 in 10.0 mi Calm Calm - N/A   Overcast
8:51 PM 35.6 °F - 30.2 °F 81% 30.06 in 10.0 mi Calm Calm - N/A   Overcast
9:11 PM 33.8 °F - 30.2 °F 87% 30.06 in 10.0 mi Calm Calm - N/A   Overcast
9:31 PM 35.6 °F - 30.2 °F 81% 30.06 in 10.0 mi Calm Calm - N/A   Overcast
9:51 PM 35.6 °F - 30.2 °F 81% 30.06 in 10.0 mi Calm Calm - N/A   Overcast
10:12 PM 33.8 °F - 28.4 °F 81% 30.06 in 10.0 mi Calm Calm - N/A   Mostly Cloudy
10:32 PM 30.2 °F - 28.4 °F 93% 30.05 in 10.0 mi Calm Calm - N/A   Scattered Clouds
11:11 PM 30.2 °F - 28.4 °F 93% 30.06 in 10.0 mi Calm Calm - N/A   Mostly Cloudy
11:31 PM 30.2 °F - 28.4 °F 93% 30.06 in 10.0 mi Calm Calm - N/A   Overcast
11:52 PM 32.0 °F - 28.4 °F 87% 30.06 in 10.0 mi Calm Calm - N/A   Overcast